RH
29 28 26 25 24 23 21 22 23 20 18 18 17 12 11 11 11 11 11 12 14 17 18 20 21 24 27 34 40 46 56 45 47 50 47 50 52 54 52 52 50 48 44 44 42
34 32 30 28 27 25 24 23 22 23 20 18 18 15 10 10 10 11 11 11 13 15 17 20 22 26 29 33 42 49 43 49 52 57 52 48 56 59 57 56 52 47 44 44 46
37 36 36 34 31 30 28 26 24 23 24 20 18 18 14 10 9 10 12 12 13 14 16 18 24 28 31 35 41 44 38 46 58 62 63 64 63 64 62 58 55 54 52 49 52
29 41 40 37 37 34 32 30 27 25 25 24 19 18 17 13 15 18 23 21 18 17 23 26 30 31 31 35 38 41 41 51 61 66 64 64 65 66 66 62 56 52 56 58 60
4 12 28 44 40 36 37 35 31 28 26 26 24 19 19 16 14 14 12 14 18 22 24 26 26 29 33 38 52 48 50 55 64 60 58 70 68 67 64 61 57 44 42 48 55
3 3 3 15 42 45 39 38 38 33 29 26 27 24 21 19 21 21 21 20 20 23 23 20 23 31 41 43 60 48 50 66 66 57 52 54 52 61 51 40 44 42 53 53 49
2 2 4 5 8 36 48 42 40 39 35 30 28 29 24 23 24 21 23 23 21 24 18 16 19 28 32 44 54 51 62 54 56 44 48 27 21 19 34 30 28 32 47 52 49
1 1 2 4 12 22 48 49 45 42 42 36 33 32 27 24 23 20 21 24 24 20 19 19 19 25 39 50 49 56 58 63 33 24 25 23 21 21 19 20 24 28 36 51 57
1 1 2 2 3 33 48 55 51 47 45 43 38 37 29 26 22 24 22 26 28 21 22 20 21 30 40 46 42 31 25 25 24 26 33 34 28 23 23 22 23 27 28 34 40
2 2 2 2 3 4 42 63 62 60 54 49 45 41 33 31 27 32 30 30 25 23 21 24 27 31 37 37 30 25 23 32 32 34 36 34 29 27 23 24 27 30 28 27 25
2 2 2 3 10 16 18 62 59 66 68 55 53 42 37 36 41 35 34 27 27 26 29 31 30 28 26 26 29 33 39 41 35 34 33 29 27 28 27 24 22 22 20 22 25
2 3 3 3 38 34 26 70 61 60 56 45 58 55 47 41 42 39 34 28 29 30 33 32 30 29 30 28 29 44 44 42 34 34 33 31 25 26 29 25 23 24 24 23 24
4 6 6 5 36 43 45 17 36 66 76 22 38 48 50 43 40 42 38 27 24 30 35 34 36 35 34 42 43 45 42 39 35 34 35 34 27 22 22 23 24 25 28 33 32
93 53 17 14 9 29 46 45 61 96 98 40 19 30 48 49 43 42 49 42 29 27 36 44 42 38 36 40 44 50 44 33 32 36 35 32 38 23 22 22 26 27 29 34 32
74 95 94 84 44 34 49 86 100 100 96 42 44 55 48 44 40 38 41 53 38 32 45 43 46 43 42 40 43 41 35 36 38 37 33 32 35 23 22 23 25 28 30 33 34
97 94 93 93 54 46 74 100 99 96 93 54 61 59 61 54 50 48 52 60 45 50 58 51 44 47 42 39 39 37 37 40 38 37 54 32 33 24 26 26 27 28 30 33 35
93 95 96 95 50 61 72 100 98 98 60 56 56 63 78 71 78 63 61 65 51 61 53 52 47 45 45 42 43 41 38 64 66 66 69 43 39 29 24 24 27 24 25 29 33
94 88 94 97 90 76 76 99 97 60 54 72 64 69 75 88 94 77 68 68 61 52 50 51 54 47 45 44 38 41 34 46 62 96 78 44 44 30 24 23 25 24 23 20 21
94 82 84 97 97 77 98 98 83 67 59 54 76 80 94 87 78 77 72 66 59 54 44 48 47 47 47 43 42 44 41 38 44 45 50 37 33 28 26 27 27 24 21 18 19
95 93 70 98 95 93 98 96 94 74 73 63 74 92 68 78 78 72 74 66 63 54 52 51 48 55 52 51 48 42 39 44 47 73 74 56 39 27 26 23 27 25 22 19 20
97 97 58 98 97 97 97 98 100 82 88 78 71 96 96 93 76 65 61 50 58 54 57 65 48 58 57 56 50 49 48 40 38 50 78 73 40 30 30 26 19 20 19 20 21
97 95 62 81 97 82 100 97 89 75 71 92 89 86 76 97 89 62 58 50 62 61 53 67 55 56 56 51 50 49 42 39 35 64 60 59 39 28 26 24 28 27 21 22 25
95 74 73 98 96 74 95 94 97 97 94 97 91 93 72 97 96 76 57 55 62 67 51 63 59 62 65 57 53 50 47 42 44 41 43 53 35 31 27 30 29 26 26 28 32
98 96 94 68 87 74 81 97 96 87 93 78 75 89 85 97 97 93 66 62 67 65 67 60 58 51 60 43 39 45 40 43 41 42 44 34 33 30 31 33 35 37 39 42 42
93 93 93 97 99 97 96 98 98 96 82 84 96 90 91 97 96 97 88 68 70 68 67 63 63 55 50 59 44 40 34 37 40 37 37 30 31 33 35 35 36 40 43 44 45
95 93 95 97 89 89 92 98 93 96 90 87 86 87 94 96 95 98 93 81 67 67 62 63 57 58 63 63 49 45 42 43 41 40 37 34 34 37 40 41 42 44 48 48 50
86 98 96 93 92 90 75 81 88 93 94 98 96 96 72 54 90 98 96 97 96 66 53 60 57 55 65 64 60 58 45 43 39 37 36 38 34 38 41 44 45 48 49 50 37
Wind_Speed
18 19 18 19 19 18 18 18 16 16 14 13 13 12 10 11 12 14 15 16 16 16 15 15 14 15 16 18 21 25 23 23 20 15 19 18 17 18 22 23 21 20 19 18 18
20 20 20 20 20 20 19 18 18 17 16 14 13 14 11 10 11 13 15 16 16 17 16 15 15 16 18 21 24 25 27 21 17 19 14 21 20 19 20 22 21 21 21 22 21
23 22 22 22 22 21 22 20 18 17 17 17 14 14 14 10 12 12 17 16 15 16 17 16 15 17 20 21 24 26 26 21 20 19 16 17 20 20 21 23 22 22 24 25 27
24 26 25 24 23 23 23 22 22 19 17 17 18 14 16 13 5 4 7 9 13 15 14 15 16 18 20 23 22 22 20 21 25 20 19 20 21 21 23 22 22 24 27 30 30
25 25 25 26 26 25 25 24 22 23 20 17 18 18 16 18 10 10 14 13 13 12 13 16 18 19 21 19 17 20 17 21 27 24 24 24 24 26 29 28 25 25 25 28 28
27 24 25 27 27 27 26 26 25 24 22 21 17 20 18 19 16 13 13 14 14 14 14 17 20 19 19 18 20 14 18 20 23 23 22 24 27 31 25 26 27 27 26 26 25
35 33 26 24 27 29 28 26 26 26 26 23 20 19 22 17 17 18 14 13 15 15 15 16 17 20 18 18 18 19 15 17 24 20 20 20 23 25 24 25 24 25 26 26 26
39 38 36 31 26 26 29 28 27 27 27 26 22 22 22 22 21 20 18 14 15 16 16 16 19 20 16 17 12 19 19 21 16 17 18 16 15 10 20 26 26 24 25 27 27
40 38 37 36 32 27 27 28 27 25 27 27 27 24 24 25 23 22 21 16 16 17 19 20 21 22 20 18 15 15 10 16 12 13 12 11 8 7 15 17 21 22 23 25 25
40 37 37 34 31 31 29 29 28 26 26 27 29 27 24 21 19 18 20 18 18 20 22 23 24 24 24 24 14 16 20 13 12 10 12 13 10 10 12 15 16 17 21 24 23
42 39 36 34 30 29 30 30 28 28 31 30 26 24 16 17 15 19 18 20 22 23 25 25 27 29 21 20 16 11 12 11 9 13 13 13 13 13 15 19 20 19 20 22 21
42 41 38 33 29 30 31 31 28 29 35 35 33 32 29 28 22 14 21 24 25 25 25 25 30 17 17 19 22 14 12 12 11 12 13 15 18 15 19 25 25 24 21 18 21
44 41 38 34 28 32 29 28 27 26 32 37 38 40 31 32 30 25 22 21 22 25 27 27 12 23 24 22 23 20 16 14 15 10 12 17 24 17 19 25 29 28 25 21 20
34 39 34 34 34 31 30 22 20 23 17 35 40 39 41 36 39 33 27 24 27 25 26 22 17 19 24 21 20 19 15 14 14 9 6 6 6 9 14 15 23 26 25 25 23
36 32 29 25 31 29 28 23 17 16 5 9 19 24 26 39 41 36 32 30 31 24 29 19 25 23 21 21 18 16 13 14 12 11 11 15 7 9 14 13 16 21 23 25 24
29 30 29 26 31 27 25 25 20 14 9 8 14 20 27 34 40 30 31 33 30 24 27 25 16 18 26 21 20 14 15 12 9 7 3 11 13 8 8 5 8 13 20 24 27
32 33 30 25 29 29 28 30 20 11 11 16 17 21 27 33 31 28 36 39 31 25 26 25 21 23 19 21 22 20 19 3 1 1 5 6 11 12 8 6 7 7 13 21 24
31 33 35 30 24 31 31 33 17 25 36 3 8 16 28 28 32 28 35 41 38 27 29 25 13 27 21 26 16 28 21 7 7 4 3 9 9 5 6 7 9 6 7 13 15
27 29 38 27 24 34 38 24 29 34 22 29 15 15 25 29 22 29 34 41 43 35 15 27 17 27 17 29 22 25 19 18 4 3 0 6 8 11 11 10 10 8 10 15 16
24 26 31 23 24 34 41 37 42 30 23 21 22 17 21 27 25 21 26 25 43 45 26 14 13 20 27 25 26 17 23 10 9 4 4 5 6 11 10 7 12 12 13 17 18
21 28 21 21 24 39 38 40 45 37 22 22 24 13 16 17 32 27 14 22 22 38 32 15 11 19 24 26 29 25 24 11 10 5 5 3 6 10 14 8 8 11 14 14 14
20 24 21 21 28 42 43 27 34 30 36 27 24 29 27 17 21 32 26 14 10 24 50 23 11 12 26 17 27 31 21 21 8 8 5 2 4 10 13 12 9 9 13 13 12
27 26 20 21 29 41 23 39 24 26 24 31 30 23 26 19 14 26 31 20 12 26 44 36 11 10 5 13 21 28 35 30 16 7 11 7 4 14 16 11 9 9 10 11 13
23 7 18 23 31 37 44 36 23 33 28 32 27 29 27 25 19 13 29 22 22 26 25 27 16 14 12 7 20 31 36 36 28 12 10 18 7 13 16 14 13 10 12 13 13
19 15 15 28 26 22 27 24 30 25 30 30 31 29 28 27 17 20 27 23 21 23 32 21 16 23 11 5 14 17 29 34 37 32 16 21 24 18 14 15 16 15 15 15 15
19 15 19 6 14 29 29 10 24 31 32 29 35 31 25 20 15 20 24 23 23 25 26 28 11 20 15 9 9 8 11 19 29 32 34 29 25 17 16 21 23 19 17 18 20
16 18 18 15 11 13 27 27 27 22 28 33 23 22 26 25 21 28 9 15 14 10 18 27 23 15 7 13 13 14 25 23 23 25 27 32 24 20 20 23 24 23 23 24 16
Wind_Direction
296 294 293 292 291 290 293 299 301 301 300 305 307 293 275 271 271 263 263 252 242 240 234 230 225 217 215 213 209 209 216 230 231 232 225 225 227 226 235 246 255 265 259 247 237
299 297 294 292 290 289 289 288 291 298 300 296 299 297 278 268 266 271 259 255 246 245 235 227 222 215 212 212 212 209 221 228 228 228 224 223 224 221 229 242 250 261 256 253 245
298 296 296 295 292 291 290 288 286 284 292 297 289 290 282 263 266 264 264 260 247 239 238 234 226 217 212 211 214 219 226 226 227 222 218 223 224 229 233 239 256 264 261 255 252
300 301 299 296 295 293 290 288 287 285 281 289 291 283 282 269 250 259 256 270 245 234 226 222 215 217 213 216 216 222 229 225 229 222 230 230 239 238 241 248 257 258 248 246 249
299 299 299 297 295 292 291 290 285 283 283 280 287 284 278 273 253 257 267 262 252 240 229 227 224 220 217 217 215 223 221 223 232 231 233 243 247 252 254 257 263 260 246 243 246
303 297 297 296 294 291 287 288 288 285 280 278 281 282 278 276 266 253 249 257 249 237 234 230 223 213 208 207 217 228 216 226 235 242 245 248 251 248 251 256 248 245 244 242 247
299 301 298 291 288 289 287 283 284 285 283 277 274 278 274 275 266 259 243 241 245 238 224 223 217 209 212 210 223 227 228 230 245 247 250 251 251 251 247 250 249 244 242 244 248
292 293 296 298 292 283 283 283 280 281 283 279 274 274 274 269 270 260 249 234 232 222 212 216 217 215 211 215 221 228 237 244 247 248 249 249 252 247 229 236 241 242 244 245 250
287 287 287 288 291 285 279 278 277 275 277 280 278 275 273 267 267 256 250 231 218 209 206 208 208 211 210 213 217 217 231 230 231 234 230 236 252 253 234 237 237 239 243 248 250
284 283 282 282 279 277 276 275 272 273 271 273 274 277 267 263 261 247 240 221 210 206 203 202 205 211 213 212 214 222 218 222 216 233 229 248 258 271 248 234 231 233 232 239 247
282 279 277 276 273 265 263 269 274 276 270 266 263 263 253 251 252 243 227 209 205 205 207 205 207 214 224 226 222 212 207 220 227 236 255 267 266 258 264 253 241 232 230 235 238
277 275 273 269 266 262 256 254 262 268 270 266 261 255 256 253 244 231 221 210 208 208 204 208 219 210 205 203 209 213 226 232 239 237 251 268 272 261 243 255 251 247 241 238 235
277 272 270 263 257 257 258 258 255 260 264 266 265 257 246 253 247 234 231 225 218 214 216 219 228 204 201 198 206 220 225 238 240 244 257 276 285 262 248 243 241 237 234 235 240
280 279 268 260 252 252 253 256 256 259 266 270 270 266 242 237 247 238 231 238 229 218 219 226 214 205 202 204 207 214 225 232 232 242 245 237 282 240 244 251 233 232 225 226 228
272 274 279 256 246 247 246 254 241 247 266 268 244 242 231 227 238 238 231 226 224 214 206 212 211 202 204 208 208 223 218 215 227 241 258 247 249 256 254 249 230 229 229 227 233
269 253 264 263 239 236 241 244 224 231 234 245 229 223 221 210 219 222 211 211 218 209 213 220 212 208 219 212 210 214 197 195 217 231 264 228 212 263 247 246 218 230 234 232 232
267 248 249 252 242 224 229 233 221 216 218 235 237 224 222 208 206 205 199 197 196 191 203 209 210 206 211 205 193 201 178 86 348 242 218 185 200 245 214 232 230 271 246 232 226
269 259 237 235 227 215 219 218 232 226 223 217 273 235 219 213 210 209 204 203 202 196 187 184 197 202 203 201 194 195 187 173 194 190 207 183 230 241 210 191 209 221 199 203 193
274 259 246 243 222 209 217 210 224 226 227 227 229 212 212 210 215 203 210 214 210 199 190 191 200 201 197 206 200 196 206 213 125 136 67 214 245 249 232 218 218 214 196 184 187
266 266 250 243 225 206 222 211 224 221 223 223 215 209 217 209 201 204 207 231 223 209 200 196 182 196 199 202 209 204 200 176 198 135 233 260 251 228 201 201 211 208 182 180 191
257 255 249 247 222 211 228 229 226 227 212 219 227 239 229 217 210 205 209 221 225 214 199 203 193 179 191 204 203 193 190 187 178 193 164 167 244 216 215 214 191 173 179 193 206
247 252 257 237 222 212 226 241 224 236 228 231 234 246 262 234 224 221 225 231 228 203 200 200 197 157 193 208 210 214 210 196 186 194 189 186 255 191 184 184 189 202 202 210 224
244 250 244 232 223 217 208 228 197 191 201 218 230 238 246 245 216 231 226 230 224 200 203 201 208 128 160 224 212 214 213 210 212 174 190 154 227 191 193 216 197 188 203 221 238
258 262 244 248 212 225 224 242 239 230 229 239 237 225 229 228 213 216 218 220 214 204 204 207 215 209 199 208 203 209 213 210 213 214 209 215 215 191 198 212 210 219 243 244 248
245 266 238 216 215 212 223 224 232 220 233 231 233 235 233 232 233 211 207 215 197 190 205 208 214 212 207 203 195 221 220 213 215 219 212 245 240 244 239 233 242 256 250 253 264
232 253 229 207 235 234 224 186 223 229 232 239 240 242 220 242 216 200 194 208 199 201 204 212 205 207 205 190 193 192 195 210 221 225 234 243 253 240 223 226 245 256 251 258 268
240 253 231 219 206 235 234 248 238 232 238 235 240 251 257 254 231 249 219 208 193 235 223 205 207 192 197 218 235 257 231 227 228 230 234 239 255 253 244 246 249 250 249 266 256